Starlink 31592

operational
NORAD ID: 59467 Int'l Des: 2024-068 Owner: SPXS Country: US Constellation: starlink
LEOCIRCULAR

About Starlink 31592

Description loading...

Live Position

Loading 3D Globe...

Upcoming Passes

Altitude History

Altitude vs Time

uPlot chart will show altitude changes over time

Two-Line Element Set

1 59467U 24068N 25304.64279809 .00000387 00000-0 23583-4 0 9993
2 59467 43.0014 43.5699 0001142 270.3538 89.7182 15.27580115 88788
Epoch: Oct 31, 2025 • Age: 10 hours

Current Status

Altitude 491.5 km
Velocity 7.62 km/s
Sub-Earth Point -32.73°S, 164.05°W
Launch Date Apr 10, 2024
Age 1.5 years
Type internet

Technical Details

Classification Payload
Mass 730.00 kg
Dry Mass 700.00 kg
Total Mass 730.00 kg
Length 0.30 m
Diameter 4.10 m
Span 29.00 m
Shape Box + pan
Manufacturer SPXS
Bus Type Starlink V2M
Phase Status In Orbit
Owner/State SPXS/US

Large Constellations

Loading constellations...